Location: New Canada
(47.1017°N, 68.5042°W)
Time: 22:30:58
(UTC+00:00)

RS-44 - Pass Details

Date: 08 April 2023
Orbit: 1175 x 1510 km, 82.5° (Epoch: 02 June)

Event Time Altitude Azimuth Distance (km) Brightness Sun altitude
Rises 06:30:34 0° 344° (NNW) 4,472 ? -30.1°
Reaches altitude 10° 06:33:42 10° 335° (NNW) 3,537 ? -29.8°
Maximum altitude 06:40:52 31° 277° (W) 2,343 ? -29.1°
Enters shadow 06:40:57 31° 276° (W) 2,343 ? -29.1°
